Location: Zagreb
(45.8000°N, 16.0000°E)
Time: 04:30:24
(UTC+02:00)

ISS - Visible Passes

Search period start: 07 July 2015 00:00
Search period end: 17 July 2015 00:00
Orbit: 398 x 402 km, 51.6° (Epoch: 06 July)

Date Brightness Start Highest point End Pass type
(mag) Time Alt. Az. Time Alt. Az. Time Alt. Az.
13 Jul -0.9 04:27:01 10° SSE 04:28:46 14° SE 04:30:37 10° E visible
15 Jul -1.9 04:15:02 12° SSW 04:17:33 28° SE 04:20:24 10° E visible
16 Jul -1.2 03:23:23 15° SSE 03:24:01 16° SE 03:26:06 10° E visible
